Time,TemperatureF,DewpointF,PressureIn,WindDirection,WindDirectionDegrees,WindSpeedMPH,WindSpeedGustMPH,Humidity,HourlyPrecipIn,Conditions,Clouds,dailyrainin,SoftwareType,DateUTC
2013-04-18 00:03:00,47.0,37.0,-100.00,NE,45,9.0,12.0,69,0.00,,,-99.99,,2013-04-18 04:03:00,
2013-04-18 00:13:00,47.0,37.0,-100.00,NE,40,9.0,16.0,66,0.00,,,-99.99,,2013-04-18 04:13:00,
2013-04-18 00:23:00,47.0,37.0,-100.00,NE,50,9.0,17.0,67,0.00,,,-99.99,,2013-04-18 04:23:00,
2013-04-18 00:33:00,46.0,37.0,-100.00,NE,55,9.0,15.0,69,0.00,,,-99.99,,2013-04-18 04:33:00,
2013-04-18 00:43:00,46.0,37.0,-100.00,NE,50,8.0,14.0,70,0.00,,,-99.99,,2013-04-18 04:43:00,
2013-04-18 00:53:00,46.0,37.0,-100.00,ENE,60,10.0,14.0,72,0.00,,,-99.99,,2013-04-18 04:53:00,
2013-04-18 01:02:00,46.0,39.0,-100.00,ENE,60,12.0,15.0,76,0.00,,,-99.99,,2013-04-18 05:02:00,
2013-04-18 01:12:00,46.0,40.0,-100.00,ENE,70,13.0,16.0,80,0.00,,,-99.99,,2013-04-18 05:12:00,
2013-04-18 01:22:00,46.0,40.0,-100.00,ENE,70,12.0,18.0,81,0.00,,,-99.99,,2013-04-18 05:22:00,
2013-04-18 01:33:00,45.0,40.0,-100.00,East,80,15.0,17.0,82,0.00,,,-99.99,,2013-04-18 05:33:00,
2013-04-18 01:42:00,45.0,40.0,-100.00,ENE,75,16.0,20.0,83,0.00,,,-99.99,,2013-04-18 05:42:00,
2013-04-18 01:52:00,45.0,41.0,-100.00,East,85,11.0,19.0,84,0.00,,,-99.99,,2013-04-18 05:52:00,
2013-04-18 02:02:00,45.0,41.0,-100.00,East,80,12.0,18.0,85,0.00,,,-99.99,,2013-04-18 06:02:00,
2013-04-18 02:12:00,45.0,41.0,-100.00,ENE,75,11.0,16.0,86,0.00,,,-99.99,,2013-04-18 06:12:00,
2013-04-18 02:22:00,44.0,41.0,-100.00,ENE,70,9.0,14.0,86,0.00,,,-99.99,,2013-04-18 06:22:00,
2013-04-18 02:32:00,44.0,41.0,-100.00,ENE,70,9.0,14.0,86,0.00,,,-99.99,,2013-04-18 06:32:00,
2013-04-18 02:42:00,44.0,41.0,-100.00,ENE,75,11.0,15.0,88,0.00,,,-99.99,,2013-04-18 06:42:00,
2013-04-18 02:52:00,45.0,42.0,-100.00,East,80,7.0,14.0,89,0.00,,,-99.99,,2013-04-18 06:52:00,
2013-04-18 03:02:00,45.0,42.0,-100.00,East,80,10.0,12.0,89,0.00,,,-99.99,,2013-04-18 07:02:00,
2013-04-18 03:12:00,45.0,42.0,-100.00,East,90,10.0,12.0,90,0.00,,,-99.99,,2013-04-18 07:12:00,
2013-04-18 03:22:00,45.0,43.0,-100.00,East,85,9.0,13.0,91,0.00,,,-99.99,,2013-04-18 07:22:00,
2013-04-18 03:32:00,45.0,43.0,-100.00,East,85,12.0,14.0,92,0.00,,,-99.99,,2013-04-18 07:32:00,
2013-04-18 03:42:00,45.0,43.0,-100.00,East,80,9.0,14.0,93,0.00,,,-99.99,,2013-04-18 07:42:00,
2013-04-18 03:52:00,45.0,44.0,-100.00,East,80,9.0,12.0,94,0.00,,,-99.99,,2013-04-18 07:52:00,
2013-04-18 04:02:00,45.0,44.0,-100.00,East,90,10.0,12.0,95,0.00,,,-99.99,,2013-04-18 08:02:00,
2013-04-18 04:12:00,45.0,44.0,-100.00,East,90,7.0,12.0,96,0.00,,,-99.99,,2013-04-18 08:12:00,
2013-04-18 04:22:00,45.0,45.0,-100.00,East,95,6.0,9.0,97,0.00,,,-99.99,,2013-04-18 08:22:00,
2013-04-18 04:32:00,46.0,46.0,-100.00,East,90,7.0,9.0,99,0.00,,,-99.99,,2013-04-18 08:32:00,
2013-04-18 04:42:00,46.0,-99.9,-100.00,East,95,7.0,9.0,-999,0.00,,,-99.99,,2013-04-18 08:42:00,
2013-04-18 04:52:00,47.0,-99.9,-100.00,ESE,105,7.0,8.0,-999,0.00,,,-99.99,,2013-04-18 08:52:00,
2013-04-18 05:02:00,47.0,-99.9,-100.00,ESE,110,6.0,9.0,-999,0.00,,,-99.99,,2013-04-18 09:02:00,
2013-04-18 05:12:00,49.0,-99.9,-100.00,ESE,105,7.0,9.0,-999,0.00,,,-99.99,,2013-04-18 09:12:00,
2013-04-18 05:23:00,49.0,-99.9,-100.00,ESE,120,6.0,8.0,-999,0.00,,,-99.99,,2013-04-18 09:23:00,
2013-04-18 05:33:00,51.0,-99.9,-100.00,ESE,115,7.0,9.0,-999,0.00,,,-99.99,,2013-04-18 09:33:00,
2013-04-18 05:43:00,51.0,-99.9,-100.00,SE,135,6.0,7.0,-999,0.00,,,-99.99,,2013-04-18 09:43:00,
2013-04-18 05:53:00,54.0,-99.9,-100.00,SE,145,9.0,11.0,-999,0.00,,,-99.99,,2013-04-18 09:53:00,
2013-04-18 06:03:00,54.0,-99.9,-100.00,SE,145,9.0,11.0,-999,0.00,,,-99.99,,2013-04-18 10:03:00,
2013-04-18 06:12:00,59.0,-99.9,-100.00,SSE,160,12.0,16.0,-999,0.00,,,-99.99,,2013-04-18 10:12:00,
2013-04-18 06:23:00,60.0,-99.9,-100.00,SSE,160,13.0,17.0,-999,0.00,,,-99.99,,2013-04-18 10:23:00,
2013-04-18 06:33:00,61.0,60.0,-100.00,SSE,155,14.0,19.0,98,0.00,,,-99.99,,2013-04-18 10:33:00,
2013-04-18 06:42:00,61.0,60.0,-100.00,SSE,165,13.0,19.0,96,0.00,,,-99.99,,2013-04-18 10:42:00,
2013-04-18 06:52:00,61.0,60.0,-100.00,SSE,160,12.0,18.0,94,0.00,,,-99.99,,2013-04-18 10:52:00,
2013-04-18 07:02:00,61.0,60.0,-100.00,SSE,155,13.0,17.0,94,0.00,,,-99.99,,2013-04-18 11:02:00,
2013-04-18 07:12:00,61.0,60.0,-100.00,SSE,160,16.0,19.0,94,0.00,,,-99.99,,2013-04-18 11:12:00,
2013-04-18 07:22:00,62.0,60.0,-100.00,SSE,160,12.0,19.0,94,0.00,,,-99.99,,2013-04-18 11:22:00,
2013-04-18 07:32:00,62.0,60.0,-100.00,SSE,160,13.0,18.0,93,0.00,,,-99.99,,2013-04-18 11:32:00,
2013-04-18 07:42:00,62.0,60.0,-100.00,SSE,160,13.0,17.0,93,0.00,,,-99.99,,2013-04-18 11:42:00,
2013-04-18 07:52:00,62.0,60.0,-100.00,SSE,160,12.0,16.0,93,0.00,,,-99.99,,2013-04-18 11:52:00,
2013-04-18 08:02:00,63.0,60.0,-100.00,SSE,160,13.0,18.0,92,0.00,,,-99.99,,2013-04-18 12:02:00,
2013-04-18 08:12:00,63.0,60.0,-100.00,South,170,13.0,18.0,90,0.00,,,-99.99,,2013-04-18 12:12:00,
2013-04-18 08:22:00,64.0,61.0,-100.00,SSE,165,14.0,20.0,88,0.00,,,-99.99,,2013-04-18 12:22:00,
2013-04-18 08:32:00,65.0,61.0,-100.00,South,170,16.0,21.0,87,0.00,,,-99.99,,2013-04-18 12:32:00,
2013-04-18 08:42:00,66.0,62.0,-100.00,South,170,15.0,23.0,86,0.00,,,-99.99,,2013-04-18 12:42:00,
2013-04-18 08:52:00,67.0,62.0,-100.00,SSE,165,18.0,24.0,84,0.00,,,-99.99,,2013-04-18 12:52:00,
2013-04-18 09:03:00,68.0,63.0,-100.00,South,175,19.0,29.0,82,0.00,,,-99.99,,2013-04-18 13:03:00,
2013-04-18 09:12:00,68.0,63.0,-100.00,South,180,21.0,28.0,82,0.00,,,-99.99,,2013-04-18 13:12:00,
2013-04-18 09:22:00,69.0,63.0,-100.00,South,175,19.0,29.0,82,0.00,,,-99.99,,2013-04-18 13:22:00,
2013-04-18 09:32:00,69.0,63.0,-100.00,South,175,19.0,29.0,82,0.00,,,-99.99,,2013-04-18 13:32:00,
2013-04-18 09:42:00,70.0,64.0,-100.00,South,175,17.0,25.0,81,0.00,,,-99.99,,2013-04-18 13:42:00,
2013-04-18 09:52:00,70.0,64.0,-100.00,South,180,17.0,29.0,81,0.00,,,-99.99,,2013-04-18 13:52:00,
2013-04-18 10:03:00,71.0,64.0,-100.00,South,180,20.0,29.0,78,0.00,,,-99.99,,2013-04-18 14:03:00,
2013-04-18 10:12:00,72.0,64.0,-100.00,South,175,19.0,30.0,76,0.00,,,-99.99,,2013-04-18 14:12:00,
2013-04-18 10:22:00,73.0,64.0,-100.00,South,185,17.0,27.0,75,0.00,,,-99.99,,2013-04-18 14:22:00,
2013-04-18 10:32:00,73.0,65.0,-100.00,South,180,16.0,30.0,74,0.00,,,-99.99,,2013-04-18 14:32:00,
2013-04-18 10:42:00,73.0,65.0,-100.00,South,185,19.0,32.0,74,0.00,,,-99.99,,2013-04-18 14:42:00,
2013-04-18 10:52:00,74.0,65.0,-100.00,South,180,17.0,35.0,73,0.00,,,-99.99,,2013-04-18 14:52:00,
2013-04-18 11:03:00,74.0,64.0,-100.00,South,180,22.0,34.0,72,0.00,,,-99.99,,2013-04-18 15:03:00,
2013-04-18 11:12:00,74.0,64.0,-100.00,South,180,24.0,37.0,72,0.00,,,-99.99,,2013-04-18 15:12:00,
2013-04-18 11:22:00,74.0,64.0,-100.00,South,180,22.0,37.0,71,0.00,,,-99.99,,2013-04-18 15:22:00,
2013-04-18 11:33:00,75.0,64.0,-100.00,South,190,21.0,31.0,69,0.00,,,-99.99,,2013-04-18 15:33:00,
2013-04-18 11:43:00,75.0,65.0,-100.00,South,185,24.0,33.0,69,0.00,,,-99.99,,2013-04-18 15:43:00,
2013-04-18 11:52:00,75.0,65.0,-100.00,South,190,19.0,35.0,69,0.00,,,-99.99,,2013-04-18 15:52:00,
2013-04-18 12:03:00,75.0,64.0,-100.00,South,180,23.0,35.0,68,0.00,,,-99.99,,2013-04-18 16:03:00,
2013-04-18 12:13:00,75.0,64.0,-100.00,South,175,22.0,37.0,68,0.00,,,-99.99,,2013-04-18 16:13:00,
2013-04-18 12:23:00,76.0,64.0,-100.00,South,175,22.0,35.0,67,0.00,,,-99.99,,2013-04-18 16:23:00,
2013-04-18 12:33:00,76.0,64.0,-100.00,South,185,21.0,30.0,67,0.00,,,-99.99,,2013-04-18 16:33:00,
2013-04-18 12:43:00,76.0,64.0,-100.00,South,190,19.0,36.0,66,0.00,,,-99.99,,2013-04-18 16:43:00,
2013-04-18 12:52:00,77.0,64.0,-100.00,SSW,195,17.0,34.0,64,0.00,,,-99.99,,2013-04-18 16:52:00,
2013-04-18 13:03:00,77.0,64.0,-100.00,South,190,17.0,34.0,62,0.00,,,-99.99,,2013-04-18 17:03:00,
2013-04-18 13:12:00,78.0,64.0,-100.00,South,185,19.0,31.0,61,0.00,,,-99.99,,2013-04-18 17:12:00,
2013-04-18 13:22:00,78.0,63.0,-100.00,South,190,20.0,32.0,60,0.00,,,-99.99,,2013-04-18 17:22:00,
2013-04-18 13:33:00,79.0,62.0,-100.00,South,175,18.0,32.0,57,0.00,,,-99.99,,2013-04-18 17:33:00,
2013-04-18 13:42:00,78.0,60.0,-100.00,South,185,17.0,33.0,54,0.00,,,-99.99,,2013-04-18 17:42:00,
2013-04-18 13:52:00,78.0,61.0,-100.00,South,185,17.0,41.0,55,0.00,,,-99.99,,2013-04-18 17:52:00,
2013-04-18 14:03:00,79.0,61.0,-100.00,SSW,200,17.0,29.0,54,0.00,,,-99.99,,2013-04-18 18:03:00,
2013-04-18 14:12:00,78.0,61.0,-100.00,SSW,195,16.0,34.0,55,0.00,,,-99.99,,2013-04-18 18:12:00,
2013-04-18 14:23:00,79.0,61.0,-100.00,South,185,17.0,34.0,55,0.00,,,-99.99,,2013-04-18 18:23:00,
2013-04-18 14:32:00,78.0,61.0,-100.00,South,190,16.0,30.0,55,0.00,,,-99.99,,2013-04-18 18:32:00,
2013-04-18 14:42:00,78.0,60.0,-100.00,South,190,21.0,32.0,53,0.00,,,-99.99,,2013-04-18 18:42:00,
2013-04-18 14:52:00,79.0,60.0,-100.00,SSW,195,16.0,34.0,52,0.00,,,-99.99,,2013-04-18 18:52:00,
2013-04-18 15:03:00,80.0,60.0,-100.00,SSW,195,19.0,36.0,50,0.00,,,-99.99,,2013-04-18 19:03:00,
2013-04-18 15:12:00,80.0,59.0,-100.00,South,175,19.0,38.0,48,0.00,,,-99.99,,2013-04-18 19:12:00,
2013-04-18 15:22:00,80.0,59.0,-100.00,SSW,195,16.0,34.0,49,0.00,,,-99.99,,2013-04-18 19:22:00,
2013-04-18 15:32:00,79.0,59.0,-100.00,SSW,195,16.0,31.0,50,0.00,,,-99.99,,2013-04-18 19:32:00,
2013-04-18 15:42:00,73.0,57.0,-100.00,West,260,19.0,30.0,57,0.00,,,-99.99,,2013-04-18 19:42:00,
2013-04-18 15:52:00,67.0,59.0,-100.00,West,275,20.0,28.0,77,0.00,,,-99.99,,2013-04-18 19:52:00,
2013-04-18 16:02:00,65.0,60.0,-100.00,West,275,17.0,23.0,83,0.00,,,-99.99,,2013-04-18 20:02:00,
2013-04-18 16:12:00,64.0,61.0,-100.00,West,275,15.0,22.0,89,0.55,,,-99.99,,2013-04-18 20:12:00,
2013-04-18 16:22:00,64.0,62.0,-100.00,WSW,250,11.0,17.0,92,0.55,,,-99.99,,2013-04-18 20:22:00,
2013-04-18 16:32:00,64.0,62.0,-100.00,West,270,14.0,17.0,94,0.00,,,-99.99,,2013-04-18 20:32:00,
2013-04-18 16:42:00,63.0,62.0,-100.00,WSW,245,12.0,18.0,95,0.55,,,-99.99,,2013-04-18 20:42:00,
2013-04-18 16:52:00,63.0,63.0,-100.00,WSW,255,14.0,18.0,99,17.56,,,-99.99,,2013-04-18 20:52:00,
2013-04-18 17:03:00,63.0,-99.9,-100.00,WSW,245,9.0,14.0,-999,0.55,,,-99.99,,2013-04-18 21:03:00,
2013-04-18 17:12:00,64.0,-99.9,-100.00,WSW,250,9.0,14.0,-999,0.00,,,-99.99,,2013-04-18 21:12:00,
2013-04-18 17:22:00,64.0,63.0,-100.00,WSW,245,12.0,17.0,97,0.00,,,-99.99,,2013-04-18 21:22:00,
2013-04-18 17:33:00,64.0,62.0,-100.00,WSW,240,11.0,18.0,95,0.55,,,-99.99,,2013-04-18 21:33:00,
2013-04-18 17:43:00,63.0,62.0,-100.00,West,260,13.0,17.0,95,0.00,,,-99.99,,2013-04-18 21:43:00,
2013-04-18 17:52:00,63.0,61.0,-100.00,West,265,11.0,17.0,94,0.00,,,-99.99,,2013-04-18 21:52:00,
2013-04-18 18:03:00,63.0,61.0,-100.00,West,265,11.0,17.0,94,0.00,,,-99.99,,2013-04-18 22:03:00,
2013-04-18 18:13:00,62.0,61.0,-100.00,West,260,9.0,15.0,96,0.00,,,-99.99,,2013-04-18 22:13:00,
2013-04-18 18:23:00,62.0,61.0,-100.00,WSW,245,5.0,11.0,98,0.00,,,-99.99,,2013-04-18 22:23:00,
2013-04-18 18:33:00,62.0,62.0,-100.00,WSW,240,3.0,7.0,99,0.00,,,-99.99,,2013-04-18 22:33:00,
2013-04-18 18:42:00,62.0,62.0,-100.00,SSW,210,3.0,4.0,99,0.00,,,-99.99,,2013-04-18 22:42:00,
2013-04-18 18:52:00,62.0,62.0,-100.00,WSW,255,6.0,7.0,99,0.00,,,-99.99,,2013-04-18 22:52:00,
2013-04-18 19:04:00,62.0,-99.9,-100.00,WSW,245,4.0,8.0,-999,0.00,,,-99.99,,2013-04-18 23:04:00,
2013-04-18 19:12:00,61.0,-99.9,-100.00,WSW,245,7.0,10.0,-999,0.00,,,-99.99,,2013-04-18 23:12:00,
2013-04-18 19:22:00,61.0,-99.9,-100.00,WSW,255,4.0,11.0,-999,0.00,,,-99.99,,2013-04-18 23:22:00,
2013-04-18 19:32:00,61.0,-99.9,-100.00,West,270,7.0,9.0,-999,0.00,,,-99.99,,2013-04-18 23:32:00,
2013-04-18 19:42:00,61.0,-99.9,-100.00,WNW,295,9.0,12.0,-999,1.69,,,-99.99,,2013-04-18 23:42:00,
2013-04-18 19:52:00,61.0,-99.9,-100.00,WNW,285,10.0,14.0,-999,5.67,,,-99.99,,2013-04-18 23:52:00,
2013-04-18 20:02:00,61.0,-99.9,-100.00,WNW,285,10.0,14.0,-999,5.67,,,-99.99,,2013-04-19 00:02:00,
2013-04-18 20:12:00,61.0,-99.9,-100.00,West,265,9.0,15.0,-999,0.55,,,-99.99,,2013-04-19 00:12:00,
2013-04-18 20:22:00,61.0,-99.9,-100.00,West,270,11.0,14.0,-999,0.55,,,-99.99,,2013-04-19 00:22:00,
2013-04-18 20:32:00,60.0,-99.9,-100.00,WSW,245,9.0,15.0,-999,0.55,,,-99.99,,2013-04-19 00:32:00,
2013-04-18 20:42:00,60.0,-99.9,-100.00,WSW,240,8.0,15.0,-999,0.55,,,-99.99,,2013-04-19 00:42:00,
2013-04-18 20:52:00,60.0,-99.9,-100.00,West,260,9.0,12.0,-999,0.55,,,-99.99,,2013-04-19 00:52:00,
2013-04-18 21:01:00,60.0,-99.9,-100.00,WSW,245,10.0,12.0,-999,15.87,,,-99.99,,2013-04-19 01:01:00,
2013-04-18 21:11:00,60.0,-99.9,-100.00,WSW,245,10.0,12.0,-999,15.87,,,-99.99,,2013-04-19 01:11:00,
2013-04-18 21:22:00,60.0,-99.9,-100.00,SW,230,6.0,12.0,-999,15.87,,,-99.99,,2013-04-19 01:22:00,
2013-04-18 21:32:00,60.0,-99.9,-100.00,SW,220,2.0,9.0,-999,0.55,,,-99.99,,2013-04-19 01:32:00,
2013-04-18 21:42:00,60.0,-99.9,-100.00,South,190,2.0,7.0,-999,0.55,,,-99.99,,2013-04-19 01:42:00,
2013-04-18 21:52:00,60.0,-99.9,-100.00,WSW,240,0.0,4.0,-999,1.10,,,-99.99,,2013-04-19 01:52:00,
2013-04-18 22:02:00,60.0,-99.9,-100.00,WSW,245,1.0,2.0,-999,0.00,,,-99.99,,2013-04-19 02:02:00,
2013-04-18 22:11:00,60.0,-99.9,-100.00,SE,145,1.0,2.0,-999,0.00,,,-99.99,,2013-04-19 02:11:00,
2013-04-18 22:22:00,59.0,-99.9,-100.00,SE,145,3.0,4.0,-999,0.00,,,-99.99,,2013-04-19 02:22:00,
2013-04-18 22:32:00,59.0,-99.9,-100.00,SE,145,3.0,4.0,-999,0.00,,,-99.99,,2013-04-19 02:32:00,
2013-04-18 22:42:00,59.0,-99.9,-100.00,SE,130,4.0,4.0,-999,0.00,,,-99.99,,2013-04-19 02:42:00,
2013-04-18 22:52:00,59.0,-99.9,-100.00,SE,125,5.0,6.0,-999,0.00,,,-99.99,,2013-04-19 02:52:00,
2013-04-18 23:02:00,59.0,-99.9,-100.00,ESE,105,2.0,6.0,-999,0.00,,,-99.99,,2013-04-19 03:02:00,
2013-04-18 23:12:00,59.0,-99.9,-100.00,ESE,120,7.0,9.0,-999,0.00,,,-99.99,,2013-04-19 03:12:00,
2013-04-18 23:22:00,59.0,-99.9,-100.00,ESE,115,7.0,9.0,-999,0.00,,,-99.99,,2013-04-19 03:22:00,
2013-04-18 23:33:00,59.0,-99.9,-100.00,SE,125,8.0,10.0,-999,0.00,,,-99.99,,2013-04-19 03:33:00,
2013-04-18 23:43:00,59.0,-99.9,-100.00,SE,130,9.0,12.0,-999,0.00,,,-99.99,,2013-04-19 03:43:00,
2013-04-18 23:54:00,59.0,-99.9,-100.00,SE,130,8.0,11.0,-999,0.00,,,-99.99,,2013-04-19 03:54:00,